This demonstration page uses our WeatherBlox Daily Observations layout. Learn more.

Left ArrowRight Arrow

38.80484, -77.04692

Hourly Observations for August 29, 2021

Temp ( °F °C ) Dew Point ( °F °C ) Humidity (%) Winds ( mph kmh ) Pressure ( in mb ) Visibility ( mi km ) Precip ( " mm )
12:49 am 00:49 Cloudy 75 24 70 21 83 83 ENE 10 17 30.21 1023 10 16 N/A
12:52 am 00:52 Cloudy 76 24.4 70 21.1 82 82 ENE 12 19 30.21 1023 10 16 N/A
1:52 am 01:52 Cloudy 76 24.4 70 21.1 82 82 ENE 12 19 30.20 1023 10 16 N/A
2:47 am 02:47 Cloudy 75 24 70 21 83 83 ENE 13 20 30.19 1022 10 16 N/A
2:52 am 02:52 Cloudy 75 23.9 69 20.6 82 82 ENE 12 19 30.19 1022 10 16 N/A
3:06 am 03:06 Cloudy 75 23.9 69 20.6 82 82 ENE 14 22 30.18 1022 10 16 N/A
3:22 am 03:22 Cloudy 75 23.9 69 20.6 82 82 ENE 10 17 30.18 1022 10 16 N/A
3:52 am 03:52 Cloudy 75 23.9 69 20.6 82 82 ENE 12 19 30.18 1022 10 16 N/A
4:52 am 04:52 Cloudy 74 23.3 69 20.6 85 85 E 8 13 30.19 1022 10 16 N/A
5:52 am 05:52 Cloudy 74 23.3 69 20.6 85 85 E 6 9 30.19 1022 10 16 N/A
6:52 am 06:52 Cloudy 74 23.3 69 20.6 85 85 NE 7 11 30.19 1023 8 13 N/A
7:18 am 07:18 Cloudy 73 22.8 69 20.6 87 87 NNE 8 13 30.20 1023 7 11 N/A
7:52 am 07:52 Cloudy 73 22.8 68 20 84 84 NE 9 15 30.20 1023 9 14 N/A
8:52 am 08:52 Cloudy 74 23.3 68 20 82 82 NE 8 13 30.20 1023 9 14 N/A
9:02 am 09:02 Cloudy 74 23.3 68 20 82 82 NNE 8 13 30.21 1023 10 16 N/A
9:52 am 09:52 Cloudy 74 23.3 68 20 82 82 ENE 6 9 30.21 1023 10 16 N/A
10:52 am 10:52 Cloudy 76 24.4 69 20.6 79 79 ENE 7 11 30.21 1023 10 16 N/A
11:24 am 11:24 Cloudy 78 25.6 69 20.6 74 74 VRB 3 6 30.21 1023 10 16 N/A
11:52 am 11:52 Cloudy 79 26.1 69 20.6 72 72 N N/A 30.20 1023 10 16 N/A
12:52 pm 12:52 Cloudy 81 27.2 69 20.6 67 67 NNE 3 6 30.18 1022 10 16 N/A
1:52 pm 13:52 Cloudy 82 27.8 69 20.6 65 65 VRB 3 6 30.16 1021 10 16 N/A
2:09 pm 14:09 Mostly Cloudy 81 27.2 69 20.6 67 67 N N/A 30.15 1021 10 16 N/A
2:52 pm 14:52 Mostly Cloudy 83 28.3 68 20 61 61 N N/A 30.12 1020 10 16 N/A
3:52 pm 15:52 Cloudy 83 28.3 69 20.6 63 63 N N/A 30.10 1019 10 16 N/A
4:52 pm 16:52 Cloudy 83 28.3 69 20.6 63 63 N N/A 30.09 1019 10 16 N/A
5:52 pm 17:52 Cloudy 83 28.3 70 21.1 65 65 S 3 6 30.09 1019 10 16 N/A
6:52 pm 18:52 Mostly Cloudy 82 27.8 70 21.1 67 67 SSE 6 9 30.08 1019 10 16 N/A
7:52 pm 19:52 Partly Cloudy 81 27.2 69 20.6 67 67 S 3 6 30.07 1018 10 16 N/A
8:52 pm 20:52 Mostly Clear 79 26.1 71 21.7 77 77 SSE 6 9 30.08 1019 10 16 N/A
9:52 pm 21:52 Mostly Clear 79 26.1 71 21.7 77 77 SSE 5 7 30.08 1019 10 16 N/A
10:52 pm 22:52 Mostly Cloudy 78 25.6 71 21.7 79 79 SW 5 7 30.08 1019 10 16 N/A
11:52 pm 23:52 Partly Cloudy 77 25 72 22.2 85 85 WSW 5 7 30.06 1018 10 16 N/A

Powered by AerisWeather